Regional Weather Roundup
Issued by NWS

Home | Current Version | Previous Version | Text Only | Print | Product List | Glossary On
Versions: 1 2 3 4 5 6 7 8 9 10 11 12 13 14 15 16 17 18 19 20 21 22 23 24 25 26 27 28 29 30 31 32 33 34 35 36 37 38 39 40 41 42 43 44 45 46 47 48 49 50
000
ASUS44 KJAN 010610
RWRMS

MISSISSIPPI HOURLY WEATHER ROUNDUP
NATIONAL WEATHER SERVICE JACKSON MS
100 AM CDT TUE SEP 01 2015

NOTE: "FAIR: INDICATES FEW OR NO CLOUDS BELOW 12,000 FEET WITH NO
SIGNIFICANT WEATHER AND/OR OBSTRUCTIONS TO VISIBILITY.

MSZ001>002-007>008-010>013-018>021-025>028-034>036-010700-
NORTHWEST MISSISSIPPI

CITY           SKY/WX    TMP DP  RH WIND       PRES   REMARKS
CLARKSDALE       N/A     73  72  94 E3        30.07S
CLEVELAND      FAIR      78  72  81 E7        30.05R
GREENWOOD      FAIR      77  67  71 E3        30.05R
6HR MIN TEMP:  76; 6HR MAX TEMP:  87;

GREENVILLE     FAIR      74  69  85 E3        30.04R
6HR MIN TEMP:  74; 6HR MAX TEMP:  88;

OLIVE BRANCH   CLEAR     72  72 100 CALM      30.08S
OXFORD         FAIR      68  66  94 CALM      30.10R
TUNICA         FAIR      72  68  88 CALM      30.07S
$$

MSZ003>006-009-014>017-022>024-029>033-037>039-010700-
NORTHEAST MISSISSIPPI

CITY           SKY/WX    TMP DP  RH WIND       PRES   REMARKS
COLUMBUS AFB   FAIR      69  68  94 CALM      30.06S
6HR MIN TEMP:  68; 6HR MAX TEMP:  82;

CORINTH        FOG       68  66  94 CALM      30.09R VSB 1/4
GOLDN TRIANGLE FAIR      73  66  78 CALM      30.06S
STARKVILLE     FAIR      68  66  94 CALM      30.07S
TUPELO         FAIR      71  68  90 NE5       30.08R
6HR MIN TEMP:  71; 6HR MAX TEMP:  83;

$$

MSZ040-058-010700-
CENTRAL MISSISSIPPI

CITY           SKY/WX    TMP DP  RH WIND       PRES   REMARKS
JACKSON INTL   FAIR      76  67  73 CALM      30.05R
6HR MIN TEMP:  76; 6HR MAX TEMP:  89;

JACKSON HAWKNS FAIR      76  67  73 CALM      30.06R
6HR MIN TEMP:  76; 6HR MAX TEMP:  89;

MERIDIAN KEY   FAIR      73  69  87 CALM      30.06S
6HR MIN TEMP:  73; 6HR MAX TEMP:  85;

MERIDIAN NAS   FAIR      73  68  84 CALM      30.07S
6HR MIN TEMP:  73; 6HR MAX TEMP:  85;

VICKSBURG      MOCLDY    72  68  87 CALM      30.04R
6HR MIN TEMP:  70; 6HR MAX TEMP:  85;

$$

MSZ059>079-010700-
SOUTH MISSISSIPPI

CITY           SKY/WX    TMP DP  RH WIND       PRES   REMARKS
BROOKHAVEN       N/A     72  68  88 CALM      30.09R
HATTIESBURG    FAIR      75  70  84 CALM      30.06S
6HR MIN TEMP:  75; 6HR MAX TEMP:  87;

MCCOMB         FAIR      74  71  91 CALM      30.07R
6HR MIN TEMP:  72; 6HR MAX TEMP:  86;

NATCHEZ        FAIR      72  68  88 S3        30.07R
6HR MIN TEMP:  72; 6HR MAX TEMP:  84;

PINE BELT      FAIR      75  66  73 S5        30.07S
6HR MIN TEMP:  75; 6HR MAX TEMP:  88;

$$

MSZ080>082-010700-
COASTAL MISSISSIPPI

CITY           SKY/WX    TMP DP  RH WIND       PRES   REMARKS
BILOXI         FAIR      77  70  81 W3        30.04S
6HR MIN TEMP:  77; 6HR MAX TEMP:  83;

PASCAGOULA     FAIR      70  69  97 CALM      30.05S
6HR MIN TEMP:  69; 6HR MAX TEMP:  83;

GULFPORT       FAIR      73  70  90 CALM      30.04S
6HR MIN TEMP:  72; 6HR MAX TEMP:  85;

$$



USA.gov is the U.S. government's official web portal to all federal, state and local government web resources and services.